QPF
0.00 0.00 0.00 0.00 0.00 0.00 0.00 0.00 0.00 0.00 0.00 0.00 0.00 0.00 0.00 0.01 0.02 0.02 0.02 0.03 0.02 0.03 0.05 0.06 0.05 0.05 0.04 0.04 0.04 0.04 0.05 0.06 0.06 0.06 0.07 0.06 0.05 0.05 0.05 0.04 0.04 0.05 0.06 0.05
0.00 0.01 0.00 0.00 0.00 0.01 0.01 0.00 0.00 0.00 0.00 0.00 0.00 0.00 0.01 0.01 0.03 0.02 0.02 0.03 0.03 0.03 0.04 0.05 0.05 0.04 0.04 0.04 0.05 0.04 0.05 0.06 0.06 0.05 0.06 0.06 0.04 0.05 0.04 0.03 0.03 0.04 0.05 0.06
0.00 0.00 0.01 0.00 0.00 0.01 0.00 0.00 0.00 0.00 0.00 0.00 0.01 0.01 0.01 0.01 0.02 0.03 0.03 0.04 0.04 0.04 0.05 0.06 0.06 0.06 0.05 0.05 0.05 0.04 0.05 0.07 0.08 0.06 0.04 0.03 0.04 0.04 0.04 0.04 0.04 0.04 0.05 0.05
0.00 0.00 0.01 0.00 0.00 0.00 0.00 0.00 0.00 0.00 0.00 0.01 0.01 0.01 0.01 0.01 0.01 0.03 0.03 0.05 0.05 0.06 0.07 0.10 0.11 0.09 0.07 0.06 0.06 0.05 0.06 0.08 0.07 0.05 0.03 0.03 0.03 0.04 0.04 0.04 0.04 0.04 0.04 0.05
0.00 0.01 0.00 0.00 0.01 0.01 0.01 0.00 0.00 0.01 0.01 0.01 0.02 0.02 0.02 0.02 0.02 0.05 0.06 0.06 0.07 0.08 0.09 0.13 0.14 0.13 0.09 0.08 0.07 0.06 0.06 0.08 0.07 0.06 0.04 0.04 0.04 0.04 0.03 0.04 0.04 0.05 0.05 0.07
0.00 0.00 0.00 0.00 0.01 0.01 0.01 0.00 0.01 0.01 0.02 0.02 0.02 0.02 0.02 0.01 0.03 0.07 0.06 0.05 0.05 0.05 0.06 0.10 0.12 0.10 0.08 0.08 0.07 0.06 0.06 0.07 0.06 0.06 0.06 0.04 0.04 0.04 0.04 0.04 0.05 0.09 0.12 0.13
0.00 0.00 0.00 0.00 0.01 0.01 0.01 0.01 0.01 0.02 0.02 0.03 0.03 0.01 0.01 0.01 0.03 0.06 0.07 0.05 0.03 0.03 0.04 0.06 0.07 0.08 0.08 0.06 0.05 0.06 0.07 0.07 0.05 0.05 0.06 0.06 0.07 0.07 0.06 0.05 0.06 0.08 0.09 0.12
0.00 0.00 0.00 0.00 0.01 0.01 0.01 0.01 0.01 0.03 0.03 0.04 0.04 0.03 0.02 0.02 0.03 0.03 0.04 0.05 0.03 0.03 0.04 0.04 0.05 0.06 0.05 0.05 0.05 0.05 0.05 0.05 0.04 0.04 0.05 0.06 0.07 0.08 0.07 0.05 0.06 0.07 0.06 0.09
0.01 0.00 0.01 0.00 0.01 0.01 0.01 0.01 0.02 0.03 0.04 0.04 0.04 0.04 0.02 0.02 0.03 0.02 0.02 0.02 0.03 0.04 0.05 0.07 0.06 0.06 0.07 0.05 0.04 0.04 0.04 0.03 0.03 0.04 0.05 0.06 0.08 0.09 0.08 0.07 0.06 0.06 0.06 0.07
0.01 0.01 0.01 0.01 0.01 0.01 0.02 0.02 0.02 0.04 0.06 0.05 0.04 0.04 0.03 0.02 0.02 0.02 0.02 0.02 0.03 0.03 0.06 0.08 0.10 0.08 0.09 0.07 0.06 0.05 0.05 0.05 0.04 0.04 0.04 0.05 0.08 0.08 0.08 0.07 0.08 0.07 0.06 0.07
0.02 0.02 0.02 0.02 0.02 0.02 0.03 0.03 0.03 0.03 0.05 0.08 0.07 0.06 0.04 0.02 0.01 0.02 0.02 0.02 0.03 0.03 0.04 0.07 0.08 0.07 0.07 0.07 0.06 0.04 0.04 0.05 0.06 0.07 0.07 0.06 0.06 0.05 0.05 0.05 0.05 0.06 0.06 0.06
0.02 0.02 0.03 0.04 0.02 0.02 0.04 0.05 0.05 0.06 0.07 0.09 0.08 0.07 0.05 0.04 0.03 0.03 0.04 0.04 0.04 0.04 0.03 0.04 0.05 0.05 0.05 0.06 0.07 0.05 0.06 0.07 0.08 0.09 0.08 0.07 0.06 0.05 0.05 0.04 0.04 0.04 0.05 0.05
0.02 0.03 0.03 0.05 0.05 0.04 0.05 0.06 0.07 0.08 0.09 0.10 0.09 0.07 0.07 0.06 0.06 0.05 0.05 0.05 0.04 0.04 0.04 0.03 0.04 0.05 0.05 0.06 0.08 0.08 0.07 0.06 0.08 0.10 0.09 0.07 0.06 0.06 0.04 0.04 0.04 0.04 0.04 0.05
0.03 0.04 0.06 0.10 0.07 0.06 0.05 0.06 0.07 0.09 0.10 0.11 0.09 0.08 0.05 0.04 0.04 0.04 0.05 0.04 0.04 0.04 0.04 0.03 0.02 0.03 0.05 0.05 0.08 0.10 0.08 0.06 0.05 0.07 0.08 0.08 0.07 0.07 0.06 0.05 0.04 0.04 0.05 0.07
0.05 0.07 0.09 0.10 0.09 0.07 0.05 0.04 0.06 0.09 0.09 0.10 0.09 0.08 0.06 0.04 0.03 0.04 0.04 0.04 0.03 0.03 0.02 0.02 0.02 0.02 0.03 0.04 0.06 0.07 0.06 0.06 0.05 0.06 0.06 0.07 0.07 0.07 0.07 0.08 0.07 0.05 0.05 0.07
0.10 0.09 0.09 0.10 0.09 0.06 0.04 0.04 0.04 0.06 0.08 0.08 0.08 0.07 0.06 0.05 0.04 0.04 0.04 0.04 0.03 0.04 0.03 0.02 0.01 0.02 0.02 0.02 0.03 0.03 0.05 0.07 0.07 0.05 0.04 0.04 0.04 0.05 0.07 0.09 0.08 0.07 0.07 0.07
0.10 0.10 0.09 0.09 0.08 0.05 0.05 0.05 0.05 0.05 0.06 0.06 0.05 0.06 0.06 0.05 0.04 0.04 0.05 0.05 0.06 0.05 0.04 0.03 0.02 0.01 0.02 0.02 0.02 0.01 0.01 0.03 0.03 0.03 0.03 0.03 0.03 0.04 0.06 0.07 0.07 0.09 0.10 0.11
0.08 0.08 0.10 0.09 0.06 0.05 0.05 0.05 0.05 0.05 0.07 0.06 0.06 0.05 0.05 0.05 0.05 0.05 0.06 0.07 0.08 0.06 0.05 0.05 0.04 0.02 0.02 0.02 0.03 0.02 0.02 0.02 0.02 0.03 0.03 0.04 0.05 0.06 0.07 0.08 0.08 0.09 0.11 0.13
0.09 0.09 0.09 0.08 0.07 0.06 0.07 0.07 0.06 0.06 0.09 0.09 0.07 0.05 0.05 0.05 0.04 0.05 0.06 0.07 0.07 0.06 0.05 0.06 0.08 0.06 0.04 0.03 0.04 0.04 0.05 0.04 0.03 0.03 0.04 0.04 0.04 0.04 0.06 0.09 0.11 0.11 0.12 0.13
0.09 0.09 0.08 0.06 0.05 0.06 0.07 0.06 0.05 0.05 0.08 0.09 0.09 0.05 0.04 0.04 0.04 0.05 0.05 0.06 0.07 0.07 0.05 0.05 0.06 0.07 0.07 0.06 0.07 0.07 0.07 0.06 0.04 0.04 0.04 0.04 0.04 0.05 0.07 0.10 0.10 0.10 0.10 0.11
0.09 0.07 0.06 0.05 0.04 0.04 0.04 0.04 0.04 0.04 0.05 0.07 0.08 0.06 0.04 0.04 0.05 0.05 0.04 0.06 0.07 0.06 0.04 0.04 0.05 0.05 0.04 0.05 0.05 0.05 0.04 0.03 0.03 0.03 0.03 0.03 0.03 0.04 0.06 0.09 0.11 0.11 0.10 0.10
0.07 0.06 0.04 0.04 0.03 0.03 0.02 0.02 0.02 0.02 0.03 0.05 0.06 0.06 0.05 0.05 0.05 0.05 0.05 0.07 0.08 0.08 0.04 0.03 0.04 0.04 0.03 0.03 0.03 0.04 0.04 0.04 0.03 0.02 0.02 0.02 0.02 0.04 0.07 0.09 0.10 0.09 0.07 0.06
0.04 0.05 0.05 0.04 0.04 0.02 0.02 0.02 0.01 0.02 0.03 0.04 0.06 0.06 0.05 0.03 0.02 0.02 0.03 0.04 0.06 0.07 0.07 0.06 0.05 0.04 0.03 0.03 0.04 0.04 0.04 0.04 0.05 0.05 0.04 0.04 0.05 0.05 0.06 0.06 0.06 0.04 0.03 0.03
0.04 0.05 0.05 0.05 0.03 0.02 0.02 0.02 0.02 0.03 0.02 0.03 0.05 0.07 0.07 0.04 0.02 0.01 0.01 0.01 0.03 0.04 0.04 0.06 0.07 0.05 0.03 0.02 0.03 0.04 0.04 0.03 0.04 0.05 0.05 0.05 0.05 0.04 0.04 0.03 0.03 0.02 0.02 0.01
0.04 0.04 0.04 0.04 0.02 0.01 0.01 0.02 0.02 0.02 0.02 0.02 0.03 0.06 0.09 0.06 0.03 0.01 0.00 0.00 0.01 0.02 0.03 0.03 0.03 0.03 0.02 0.01 0.01 0.01 0.01 0.01 0.01 0.01 0.02 0.02 0.03 0.02 0.02 0.01 0.01 0.01 0.01 0.00
0.04 0.03 0.03 0.02 0.02 0.01 0.01 0.01 0.02 0.01 0.01 0.01 0.02 0.03 0.06 0.07 0.04 0.01 0.01 0.01 0.01 0.01 0.01 0.01 0.01 0.01 0.01 0.01 0.00 0.00 0.00 0.00 0.00 0.01 0.01 0.02 0.03 0.03 0.02 0.01 0.00 0.00 0.00 0.00
0.05 0.04 0.03 0.02 0.02 0.02 0.01 0.01 0.02 0.01 0.01 0.01 0.02 0.02 0.03 0.05 0.04 0.03 0.02 0.01 0.01 0.01 0.01 0.01 0.01 0.01 0.00 0.00 0.00 0.00 0.00 0.00 0.01 0.01 0.01 0.01 0.02 0.02 0.02 0.01 0.00 0.00 0.00 0.00
MSLP
1015.15 1015.59 1016.02 1016.40 1016.67 1016.78 1016.72 1016.46 1016.03 1015.47 1014.82 1014.16 1013.54 1013.02 1012.62 1012.36 1012.22 1012.20 1012.25 1012.37 1012.52 1012.70 1012.91 1013.15 1013.44 1013.78 1014.16 1014.58 1015.00 1015.40 1015.75 1016.01 1016.19 1016.27 1016.28 1016.23 1016.18 1016.13 1016.12 1016.17 1016.26 1016.38 1016.52 1016.64
1015.65 1015.98 1016.26 1016.44 1016.49 1016.39 1016.13 1015.73 1015.22 1014.65 1014.07 1013.54 1013.10 1012.78 1012.59 1012.52 1012.55 1012.66 1012.82 1013.00 1013.19 1013.40 1013.64 1013.91 1014.23 1014.60 1015.03 1015.50 1015.97 1016.42 1016.81 1017.13 1017.35 1017.48 1017.53 1017.53 1017.51 1017.49 1017.50 1017.54 1017.61 1017.69 1017.77 1017.82
1016.15 1016.35 1016.46 1016.45 1016.30 1016.00 1015.59 1015.08 1014.53 1013.98 1013.48 1013.08 1012.82 1012.68 1012.68 1012.78 1012.97 1013.20 1013.45 1013.71 1013.96 1014.22 1014.50 1014.82 1015.20 1015.63 1016.11 1016.62 1017.13 1017.62 1018.04 1018.38 1018.62 1018.78 1018.85 1018.88 1018.88 1018.88 1018.89 1018.93 1018.99 1019.04 1019.07 1019.06
1016.61 1016.68 1016.62 1016.43 1016.10 1015.66 1015.13 1014.55 1013.99 1013.49 1013.09 1012.82 1012.70 1012.74 1012.90 1013.15 1013.47 1013.81 1014.16 1014.50 1014.83 1015.17 1015.52 1015.92 1016.36 1016.85 1017.38 1017.93 1018.47 1018.96 1019.39 1019.72 1019.96 1020.11 1020.18 1020.21 1020.22 1020.23 1020.25 1020.29 1020.33 1020.35 1020.35 1020.28
1016.99 1016.91 1016.70 1016.35 1015.89 1015.35 1014.75 1014.16 1013.62 1013.18 1012.88 1012.74 1012.77 1012.94 1013.23 1013.61 1014.04 1014.49 1014.93 1015.37 1015.79 1016.22 1016.67 1017.15 1017.67 1018.22 1018.80 1019.37 1019.91 1020.39 1020.79 1021.09 1021.29 1021.41 1021.47 1021.49 1021.49 1021.50 1021.53 1021.56 1021.59 1021.60 1021.56 1021.46
1017.21 1017.00 1016.66 1016.21 1015.67 1015.07 1014.46 1013.90 1013.42 1013.07 1012.88 1012.85 1013.00 1013.28 1013.68 1014.16 1014.68 1015.22 1015.75 1016.28 1016.81 1017.34 1017.89 1018.46 1019.05 1019.66 1020.27 1020.85 1021.37 1021.81 1022.16 1022.40 1022.55 1022.63 1022.66 1022.65 1022.65 1022.66 1022.68 1022.72 1022.74 1022.73 1022.67 1022.55
1017.25 1016.93 1016.50 1015.98 1015.42 1014.83 1014.27 1013.78 1013.39 1013.15 1013.07 1013.15 1013.39 1013.76 1014.24 1014.79 1015.38 1015.99 1016.61 1017.23 1017.85 1018.48 1019.12 1019.78 1020.44 1021.09 1021.71 1022.27 1022.76 1023.14 1023.42 1023.60 1023.70 1023.72 1023.71 1023.69 1023.68 1023.69 1023.71 1023.75 1023.77 1023.75 1023.68 1023.53
1017.11 1016.70 1016.22 1015.70 1015.16 1014.64 1014.17 1013.80 1013.54 1013.42 1013.45 1013.63 1013.95 1014.38 1014.91 1015.51 1016.14 1016.81 1017.49 1018.18 1018.88 1019.59 1020.31 1021.03 1021.73 1022.40 1023.02 1023.55 1023.99 1024.31 1024.52 1024.64 1024.68 1024.66 1024.62 1024.59 1024.57 1024.58 1024.61 1024.65 1024.66 1024.64 1024.56 1024.40
1016.81 1016.36 1015.88 1015.40 1014.94 1014.54 1014.20 1013.97 1013.86 1013.87 1014.01 1014.28 1014.66 1015.14 1015.70 1016.31 1016.98 1017.67 1018.39 1019.12 1019.88 1020.65 1021.41 1022.17 1022.89 1023.55 1024.14 1024.63 1025.01 1025.27 1025.42 1025.49 1025.48 1025.44 1025.38 1025.34 1025.33 1025.35 1025.38 1025.42 1025.44 1025.42 1025.32 1025.16
1016.41 1015.96 1015.53 1015.13 1014.80 1014.54 1014.37 1014.31 1014.34 1014.49 1014.73 1015.08 1015.51 1016.02 1016.58 1017.20 1017.87 1018.57 1019.30 1020.06 1020.84 1021.62 1022.40 1023.16 1023.87 1024.51 1025.05 1025.49 1025.81 1026.02 1026.13 1026.15 1026.12 1026.07 1026.02 1025.99 1025.98 1026.01 1026.05 1026.09 1026.11 1026.07 1025.98 1025.81
1015.99 1015.58 1015.22 1014.95 1014.76 1014.68 1014.68 1014.78 1014.97 1015.24 1015.58 1015.99 1016.46 1016.98 1017.55 1018.16 1018.81 1019.50 1020.22 1020.97 1021.74 1022.52 1023.28 1024.01 1024.68 1025.27 1025.76 1026.14 1026.41 1026.58 1026.65 1026.66 1026.64 1026.59 1026.56 1026.54 1026.56 1026.59 1026.64 1026.67 1026.67 1026.63 1026.52 1026.35
1015.61 1015.26 1015.01 1014.87 1014.84 1014.92 1015.10 1015.36 1015.68 1016.07 1016.49 1016.96 1017.45 1017.98 1018.54 1019.14 1019.77 1020.44 1021.14 1021.87 1022.61 1023.35 1024.06 1024.74 1025.35 1025.87 1026.30 1026.63 1026.85 1026.99 1027.06 1027.07 1027.06 1027.05 1027.04 1027.05 1027.08 1027.12 1027.16 1027.18 1027.16 1027.10 1026.97 1026.78
1015.26 1015.01 1014.88 1014.88 1015.01 1015.25 1015.59 1015.98 1016.43 1016.90 1017.40 1017.91 1018.43 1018.97 1019.53 1020.12 1020.73 1021.38 1022.05 1022.74 1023.44 1024.12 1024.78 1025.38 1025.91 1026.37 1026.73 1027.01 1027.20 1027.32 1027.39 1027.43 1027.45 1027.47 1027.50 1027.54 1027.58 1027.62 1027.64 1027.64 1027.59 1027.49 1027.33 1027.12
1014.96 1014.81 1014.81 1014.95 1015.23 1015.61 1016.08 1016.59 1017.14 1017.69 1018.25 1018.81 1019.36 1019.91 1020.48 1021.06 1021.67 1022.29 1022.94 1023.59 1024.24 1024.86 1025.44 1025.97 1026.42 1026.80 1027.11 1027.33 1027.50 1027.62 1027.70 1027.77 1027.83 1027.89 1027.95 1028.01 1028.06 1028.09 1028.09 1028.05 1027.95 1027.81 1027.61 1027.37
1014.66 1014.63 1014.76 1015.04 1015.45 1015.96 1016.53 1017.15 1017.77 1018.40 1019.01 1019.61 1020.19 1020.77 1021.36 1021.95 1022.56 1023.18 1023.80 1024.42 1025.01 1025.57 1026.08 1026.52 1026.90 1027.21 1027.46 1027.65 1027.80 1027.92 1028.02 1028.12 1028.22 1028.31 1028.40 1028.48 1028.53 1028.54 1028.51 1028.41 1028.27 1028.06 1027.81 1027.52
1014.35 1014.45 1014.71 1015.12 1015.65 1016.26 1016.93 1017.63 1018.33 1019.01 1019.68 1020.32 1020.94 1021.56 1022.17 1022.78 1023.40 1024.02 1024.62 1025.21 1025.76 1026.25 1026.69 1027.07 1027.38 1027.62 1027.82 1027.98 1028.11 1028.23 1028.36 1028.48 1028.61 1028.73 1028.85 1028.93 1028.97 1028.95 1028.87 1028.73 1028.52 1028.25 1027.94 1027.60
1014.01 1014.25 1014.65 1015.18 1015.82 1016.54 1017.29 1018.06 1018.82 1019.56 1020.28 1020.97 1021.64 1022.29 1022.94 1023.58 1024.21 1024.82 1025.42 1025.97 1026.47 1026.91 1027.29 1027.60 1027.85 1028.04 1028.20 1028.33 1028.45 1028.57 1028.71 1028.85 1029.00 1029.14 1029.25 1029.33 1029.34 1029.29 1029.17 1028.97 1028.70 1028.37 1028.00 1027.60
1013.68 1014.07 1014.60 1015.26 1016.01 1016.82 1017.65 1018.49 1019.31 1020.11 1020.87 1021.60 1022.31 1023.00 1023.68 1024.34 1024.98 1025.59 1026.17 1026.69 1027.15 1027.54 1027.86 1028.12 1028.31 1028.46 1028.58 1028.69 1028.80 1028.92 1029.06 1029.21 1029.36 1029.49 1029.60 1029.65 1029.64 1029.55 1029.38 1029.12 1028.80 1028.41 1027.98 1027.52
1013.42 1013.96 1014.64 1015.42 1016.27 1017.17 1018.08 1018.98 1019.85 1020.70 1021.50 1022.27 1023.01 1023.73 1024.42 1025.09 1025.73 1026.33 1026.88 1027.36 1027.78 1028.12 1028.40 1028.60 1028.76 1028.87 1028.97 1029.05 1029.15 1029.26 1029.39 1029.53 1029.66 1029.78 1029.86 1029.88 1029.83 1029.69 1029.47 1029.18 1028.80 1028.37 1027.89 1027.39
1013.32 1014.01 1014.82 1015.72 1016.67 1017.65 1018.62 1019.57 1020.49 1021.37 1022.21 1023.00 1023.76 1024.48 1025.17 1025.83 1026.45 1027.01 1027.53 1027.97 1028.34 1028.64 1028.88 1029.05 1029.17 1029.26 1029.34 1029.41 1029.49 1029.59 1029.69 1029.80 1029.91 1029.98 1030.02 1029.99 1029.90 1029.72 1029.46 1029.13 1028.72 1028.26 1027.76 1027.23
1013.45 1014.29 1015.22 1016.21 1017.25 1018.28 1019.31 1020.30 1021.24 1022.14 1022.99 1023.78 1024.54 1025.24 1025.91 1026.53 1027.11 1027.63 1028.10 1028.50 1028.82 1029.09 1029.29 1029.43 1029.54 1029.62 1029.68 1029.74 1029.80 1029.88 1029.95 1030.02 1030.08 1030.10 1030.08 1030.00 1029.86 1029.64 1029.35 1028.99 1028.56 1028.09 1027.58 1027.05
1013.88 1014.83 1015.85 1016.91 1018.00 1019.07 1020.12 1021.12 1022.08 1022.97 1023.81 1024.58 1025.31 1025.98 1026.60 1027.18 1027.70 1028.16 1028.57 1028.92 1029.21 1029.44 1029.62 1029.75 1029.85 1029.92 1029.98 1030.03 1030.07 1030.12 1030.15 1030.18 1030.18 1030.14 1030.06 1029.92 1029.73 1029.47 1029.15 1028.78 1028.36 1027.90 1027.40 1026.88
1014.60 1015.62 1016.69 1017.79 1018.89 1019.97 1021.01 1022.01 1022.94 1023.81 1024.61 1025.35 1026.03 1026.65 1027.21 1027.72 1028.18 1028.58 1028.94 1029.24 1029.49 1029.69 1029.85 1029.98 1030.08 1030.15 1030.21 1030.26 1030.29 1030.30 1030.30 1030.27 1030.21 1030.11 1029.96 1029.77 1029.53 1029.24 1028.91 1028.53 1028.13 1027.69 1027.23 1026.75
1015.58 1016.62 1017.70 1018.78 1019.86 1020.91 1021.92 1022.87 1023.76 1024.59 1025.34 1026.03 1026.65 1027.20 1027.70 1028.15 1028.54 1028.89 1029.18 1029.44 1029.66 1029.85 1030.00 1030.13 1030.23 1030.32 1030.38 1030.42 1030.43 1030.41 1030.37 1030.29 1030.17 1030.01 1029.81 1029.56 1029.29 1028.98 1028.64 1028.29 1027.91 1027.51 1027.10 1026.67
1016.71 1017.73 1018.77 1019.80 1020.82 1021.81 1022.76 1023.65 1024.49 1025.25 1025.95 1026.58 1027.14 1027.64 1028.07 1028.46 1028.79 1029.08 1029.34 1029.56 1029.75 1029.92 1030.07 1030.20 1030.31 1030.39 1030.46 1030.49 1030.48 1030.44 1030.36 1030.23 1030.07 1029.85 1029.61 1029.33 1029.03 1028.72 1028.39 1028.06 1027.72 1027.38 1027.02 1026.65
1017.90 1018.86 1019.81 1020.77 1021.71 1022.61 1023.49 1024.31 1025.08 1025.79 1026.43 1027.00 1027.51 1027.95 1028.34 1028.67 1028.96 1029.20 1029.42 1029.61 1029.78 1029.93 1030.07 1030.20 1030.30 1030.39 1030.44 1030.46 1030.44 1030.37 1030.26 1030.10 1029.89 1029.65 1029.38 1029.08 1028.78 1028.47 1028.17 1027.87 1027.57 1027.28 1026.99 1026.67
1019.04 1019.90 1020.76 1021.61 1022.45 1023.28 1024.07 1024.82 1025.53 1026.19 1026.78 1027.32 1027.78 1028.19 1028.53 1028.83 1029.08 1029.29 1029.47 1029.63 1029.77 1029.90 1030.02 1030.13 1030.22 1030.29 1030.33 1030.33 1030.29 1030.20 1030.06 1029.88 1029.65 1029.39 1029.11 1028.82 1028.53 1028.24 1027.97 1027.72 1027.47 1027.23 1026.99 1026.73
Thickness
5702 5711 5715 5717 5718 5717 5715 5712 5708 5719 5726 5743 5754 5760 5764 5768 5770 5771 5771 5772 5772 5772 5771 5769 5767 5766 5765 5763 5761 5760 5756 5752 5750 5749 5747 5745 5743 5741 5738 5736 5735 5734 5732 5731
5698 5707 5710 5710 5716 5718 5719 5719 5720 5726 5729 5749 5754 5758 5760 5764 5766 5766 5766 5768 5769 5769 5768 5766 5765 5763 5761 5759 5757 5756 5753 5750 5748 5746 5744 5741 5740 5738 5736 5734 5732 5731 5729 5728
5679 5695 5702 5694 5709 5714 5718 5723 5723 5721 5733 5745 5747 5751 5754 5759 5761 5762 5764 5765 5765 5765 5764 5763 5762 5760 5757 5756 5754 5751 5749 5746 5744 5742 5740 5738 5737 5735 5733 5731 5729 5726 5725 5724
5668 5680 5672 5694 5716 5720 5719 5721 5726 5731 5736 5741 5745 5748 5752 5756 5757 5759 5760 5760 5761 5761 5761 5759 5757 5755 5753 5751 5748 5745 5743 5741 5740 5738 5737 5735 5733 5731 5729 5728 5725 5723 5721 5720
5656 5661 5673 5695 5709 5711 5710 5712 5724 5726 5733 5737 5741 5743 5744 5751 5754 5755 5756 5757 5757 5758 5757 5754 5752 5750 5747 5745 5742 5740 5738 5736 5735 5734 5732 5730 5728 5727 5725 5723 5721 5718 5716 5715
5653 5657 5661 5686 5707 5714 5711 5704 5723 5725 5727 5731 5734 5727 5734 5745 5747 5748 5750 5751 5751 5751 5750 5748 5746 5744 5741 5738 5736 5734 5733 5732 5731 5730 5728 5725 5724 5723 5721 5719 5717 5714 5712 5710
5650 5654 5666 5690 5701 5707 5691 5701 5720 5722 5724 5727 5728 5731 5735 5738 5739 5741 5742 5743 5744 5743 5742 5741 5740 5738 5734 5733 5729 5728 5728 5727 5726 5724 5722 5720 5719 5717 5715 5713 5711 5708 5706 5705
5643 5648 5660 5688 5694 5691 5695 5707 5713 5716 5719 5722 5724 5727 5728 5730 5730 5731 5732 5734 5735 5734 5733 5733 5733 5731 5728 5725 5724 5723 5722 5720 5718 5717 5716 5714 5712 5711 5709 5707 5704 5701 5699 5697
5648 5655 5670 5679 5684 5692 5696 5699 5705 5709 5714 5718 5718 5718 5719 5721 5722 5723 5724 5725 5726 5726 5724 5724 5724 5723 5720 5718 5717 5716 5715 5713 5711 5709 5708 5707 5705 5703 5701 5699 5697 5695 5692 5690
5647 5657 5667 5674 5680 5687 5692 5696 5701 5705 5708 5710 5710 5711 5711 5712 5713 5714 5715 5716 5717 5717 5716 5715 5716 5716 5714 5713 5712 5710 5707 5705 5704 5702 5699 5698 5697 5695 5693 5691 5689 5687 5685 5682
5643 5653 5661 5668 5673 5679 5684 5690 5694 5697 5700 5701 5702 5702 5702 5702 5703 5705 5706 5707 5708 5708 5708 5708 5709 5709 5708 5707 5706 5703 5700 5698 5696 5694 5692 5689 5686 5683 5682 5681 5681 5679 5677 5674
5638 5648 5651 5657 5665 5672 5675 5680 5685 5688 5689 5691 5692 5692 5693 5693 5694 5695 5696 5698 5699 5699 5700 5700 5701 5701 5701 5701 5699 5697 5693 5691 5688 5685 5683 5681 5677 5673 5670 5670 5669 5668 5667 5665
5637 5644 5648 5654 5659 5664 5667 5672 5676 5679 5680 5681 5682 5684 5684 5684 5684 5686 5688 5689 5690 5690 5691 5692 5693 5693 5693 5694 5693 5691 5687 5684 5680 5678 5676 5673 5671 5668 5663 5659 5657 5655 5654 5652
5633 5638 5641 5646 5650 5655 5660 5663 5667 5669 5671 5672 5672 5673 5674 5674 5675 5677 5678 5680 5682 5683 5683 5684 5684 5684 5685 5686 5685 5683 5680 5677 5674 5671 5668 5665 5663 5660 5657 5653 5649 5645 5641 5639
5627 5632 5636 5639 5642 5646 5650 5653 5656 5657 5659 5660 5662 5663 5664 5665 5666 5667 5669 5671 5672 5674 5674 5675 5675 5675 5677 5678 5676 5674 5672 5668 5666 5663 5660 5657 5654 5651 5648 5644 5640 5635 5631 5627
5620 5624 5629 5631 5634 5637 5641 5644 5647 5647 5648 5649 5651 5652 5654 5655 5656 5657 5659 5661 5662 5663 5664 5665 5665 5666 5668 5669 5668 5666 5663 5661 5658 5654 5651 5647 5645 5641 5637 5633 5630 5626 5621 5618
5614 5617 5621 5623 5627 5629 5632 5635 5638 5638 5638 5639 5641 5643 5645 5646 5646 5647 5648 5650 5652 5653 5654 5655 5656 5658 5659 5660 5660 5658 5655 5651 5648 5645 5641 5637 5635 5631 5627 5623 5619 5614 5610 5606
5612 5614 5618 5620 5622 5623 5624 5626 5628 5629 5629 5630 5633 5634 5636 5637 5637 5637 5638 5640 5642 5643 5644 5645 5647 5648 5649 5650 5649 5647 5645 5641 5638 5634 5630 5627 5624 5620 5616 5612 5608 5603 5598 5594
5606 5608 5611 5613 5615 5616 5617 5617 5618 5619 5620 5622 5624 5624 5625 5626 5627 5627 5629 5631 5633 5633 5632 5635 5636 5638 5638 5639 5638 5637 5634 5631 5627 5623 5619 5615 5612 5608 5604 5600 5596 5592 5587 5582
5601 5603 5605 5606 5608 5609 5609 5610 5611 5611 5612 5613 5615 5615 5615 5616 5617 5619 5620 5620 5619 5620 5622 5623 5625 5626 5626 5627 5626 5624 5622 5618 5615 5611 5607 5603 5600 5595 5592 5588 5584 5579 5574 5569
5595 5597 5598 5599 5600 5601 5602 5603 5603 5602 5602 5604 5606 5606 5606 5606 5607 5609 5611 5610 5608 5610 5612 5613 5614 5614 5615 5614 5614 5612 5609 5606 5602 5598 5594 5590 5586 5582 5578 5574 5570 5566 5561 5556
5589 5590 5591 5592 5593 5594 5594 5595 5595 5595 5595 5596 5597 5597 5597 5597 5598 5598 5598 5598 5598 5600 5601 5602 5602 5602 5602 5602 5601 5598 5595 5592 5589 5585 5581 5577 5573 5569 5565 5561 5557 5552 5548 5543
5583 5584 5585 5586 5587 5587 5587 5587 5588 5588 5588 5588 5589 5589 5589 5588 5589 5590 5587 5586 5589 5590 5590 5590 5589 5589 5590 5589 5586 5584 5582 5579 5576 5572 5568 5564 5560 5557 5553 5549 5544 5539 5535 5531
5577 5578 5578 5579 5580 5580 5580 5579 5580 5581 5581 5581 5580 5580 5581 5580 5578 5577 5578 5578 5579 5579 5578 5577 5578 5577 5577 5576 5573 5571 5568 5566 5563 5559 5556 5552 5548 5545 5541 5537 5532 5527 5523 5519
5571 5572 5573 5573 5574 5574 5573 5573 5573 5573 5572 5571 5571 5571 5571 5571 5570 5569 5569 5569 5569 5569 5568 5567 5567 5566 5565 5563 5561 5559 5556 5554 5551 5548 5545 5541 5537 5533 5529 5525 5521 5516 5512 5508
5564 5565 5566 5567 5568 5568 5568 5568 5567 5566 5565 5564 5561 5561 5561 5561 5561 5560 5560 5560 5560 5559 5558 5556 5555 5554 5553 5551 5549 5547 5545 5542 5540 5536 5533 5529 5525 5521 5518 5513 5510 5506 5502 5498
5558 5558 5559 5560 5560 5561 5561 5561 5560 5559 5558 5557 5554 5553 5554 5553 5553 5552 5552 5551 5550 5549 5547 5546 5545 5544 5542 5540 5538 5536 5534 5531 5528 5524 5521 5518 5514 5510 5507 5503 5499 5496 5492 5488